Weather in 1 Otdelenie sovkhoza Maslovskiy

Russia / Voronezh Oblast     51°32′22″N   39°20′29″E
temp.,
°C
wind,
m/s
gust,
m/s
humid.,
%
clouds,
%
prec.,
mm/h
press.,
hPa
HPBL,
m
8 august, mon
mon800:00+22se2242100 0.0 101713
03:00+20ese114175 0.0 101711
06:00+20ese114712 0.0 101811
09:00+26ne113773 0.0 1019284
12:00+30ene3332100 0.0 1019875
15:00+32e22261 0.0 10182689
18:00+31wsw22315 0.0 1018307
21:00+24se11374 0.0 101814
9 august, tue
tue900:00+22e23424 0.0 101924
03:00+20sw114613 0.0 101811
06:00+20wnw114956 0.0 101811
09:00+27w12387 0.0 1018297
12:00+30w4432100 0.0 10181543
15:00+28wnw333713 0.0 1018488
18:00+29ssw233998 0.1 1017356
21:00+23wnw1253100 0.6 101720
10 august, wed
wed1000:00+21n366918 0.0 101798
03:00+19nne35875 0.0 1017117
06:00+19n36905 0.0 1018210
09:00+24ne3465100 0.0 1018468
12:00+26ne335597 0.0 1017774
15:00+29ne3342100 0.0 10161476
18:00+28nne5749100 0.0 1016678
21:00+22ne61364100 0.2 1017408
11 august, thu
thu1100:00+20ne51369100 0.3 1017380
03:00+19ne51174100 0.3 1018362
06:00+18nne6128486 0.8 1019351
09:00+22ne71068100 0.8 1019611
12:00+27ene785098 0.0 10191085
15:00+27ne4751100 0.0 1019777
18:00+28ne6947100 0.0 1018971
21:00+21ene5117498 1.4 1020257
12 august, fri
fri1200:00+19ne498174 0.0 1019178
03:00+19e2383100 0.2 102156
06:00+18ene4108178 0.1 1021229
09:00+22ene71167100 0.7 1021438
12:00+28e683999 0.0 1021993
15:00+32ene6831100 0.0 10191886
18:00+29ne5941100 0.0 1019487
21:00+24sse4750100 0.0 1021180